DELTA 1 DEB, 29187

Orbit data source: Space-Track

DELTA 1 DEB, 29187 is space debris in LEO originally from a launch on Thu, 11 Jan 1968 UTC launched from the Air Force Western Test Range (AFWTR). Debris objects in space refer to the collection of defunct objects orbiting the Earth. Examples of debris include non-operational satellites, rocket bodies, and fragments generated from explosions, collisions, or faulty payload assembly.

Loading next visibility...
Identifier
29187, 1968-002L
Orbit
LEO
Country
Flag of USUS
Related business
Manufacturer
Unknown
Mission
Spacecraft
Bus & Motor
Unknown
Mass
Unknown
Launch date (UTC)
1968-01-11 (58 years ago)
Launch vehicle
Unknown
Launch site
Air Force Western Test Range (AFWTR)
Object type
Payload
Rocket body
Debris
Shape & HBR
Unknown shape, 0.1 m
Radar Cross Section
Small (<0.1 m²)

Expand to show TLE details & history
Last TLE update: 3 days ago

TLE from 3 days ago
0 DELTA 1 DEB
1 29187U 68002L   26092.55677142  .00000147  00000-0  69746-3 0  9996
2 29187 105.7915 191.2656 0293061 349.0156  24.9143 12.91244373592359
Epoch: 2026-04-02T13:21Z
TLE epoch observation values (Epoch: 2026-04-02T13:21:45.050Z)
Latitude
14.77956°
Longitude
155.66739°
Altitude
1,095.535 km
Speed
7.402 km/s
True Right ascension
12h 28m 02s
True Declination
14° 41' 56"
Sunlit
Object was in full shadow at epoch
Visualization orbit readout
Latitude
Unknown
Longitude
Unknown
Altitude
Unknown
Speed
Unknown
Apparent Right ascension
Unknown
Apparent Declination
Unknown
Sunlit
N/A
Visualization observer readout
Local Sidereal Time
18:48:55
Azimuth
Unknown
Elevation
Unknown
Doppler factor
Unknown
Orbital elements
Apogee altitude
1,519.211 km
Perigee altitude
1,069.509 km
Semi-major axis
7,672.497 km
Eccentricity
0.02931
Inclination
105.7915°
RAAN
191.2656°
Arg. of periapsis
349.0156°
True anomaly
26.37738°
Mean anomaly
24.9143°
Eccentric anomaly
25.6409°
Mean motion
3.22952 °/min
Orbital period
111.47 mins
BSTAR
0.00069746
Loading maneuver chart data...
Computing Atmospheric mass density...
Loading historical data...
Loading historical data...
Loading historical data...
Loading historical data...
Loading historical data...
Loading historical data...
Loading historical data...

Documentation

Showing up to 5 results
|